sat.trackr.live / text

‹ back to catalog

STARLINK-34048

NORAD 63816 · 2025-092N

PAYLOAD ACTIVE UNKNOWN

§ Identity

Operator
Country
US
Launch date
2025-05-04
Launch site
AFETR
Launch vehicle
Mass (kg)
RCS (m²)

Purposes: comms

External: N2YO · Heavens-Above · Gunter

§ Orbital elements

Epoch: 2026-09-20T10:16:37.885728Z

Period
94.27 min
Inclination
43.0028°
Eccentricity
0.0002150
Mean motion
15.27573091 rev/d
Perigee alt
481.6 km
Apogee alt
484.5 km
Semi-major
6,861.2 km
B*
6.3270e-4
RAAN
153.0860°
Arg perigee
264.9045°
Mean anomaly
95.1562°
Rev number
7,844

§ Raw data

STARLINK-340481 63816U 25092N   26263.42821627  .00017186  00000+0  63270-3 0  99962 63816  43.0028 153.0860 0002150 264.9045  95.1562 15.27573091 78445

JSON: /api/v1/satellites/63816 · /tle

For live sub-satellite position, see the globe view (requires WebGL).

§ Visibility from observer

Set your observer location to see the next 7 days of passes ≥ 10°. The values pass through the URL so the page stays shareable.

No JS? Fill the form by hand. The geolocation button needs JavaScript.